ONEWEB-0010, 44058

Orbit data source: Space-Track

ONEWEB-0010, 44058 is a payload satellite owned by One Web (UK) in LEO that was launched on Wed, 27 Feb 2019 UTC via a SOYUZ-ST-B launch vehicle from the French Guiana (FRGUI). Payload-class satellites include a variety of spacecraft equipped with specific instruments for various scientific and technological missions. These include communications satellites like Starlink; space stations such as the ISS; scientific satellites like the Hubble; Earth observation satellites from companies like Planet Labs, Umbra, and HawkEye 360; GPS; miniature CubeSats for education and research; and military/defense satellites.

Loading next visibility...
Identifier
44058, 2019-010B
Orbit
LEO
Country
Flag of UKUK
Related business
Manufacturer
Airbus/Toulouse
Mission
Operational Commercial Communications
Bus & Motor
ARROW, Unknown motor
Mass
148 kg wet, ~140 kg dry
Launch date (UTC)
2019-02-27 (7 years ago)
Launch vehicle
SOYUZ-ST-B
Launch site
French Guiana (FRGUI)
Object type
Payload
Rocket body
Debris
Shape & HBR
Trap Box + 2 Pan, 6.7 m
Radar Cross Section
3.464 m², Large (>1 m²)

Expand to show TLE details & history
Last TLE update: 19 hours ago

TLE from 19 hours ago
0 ONEWEB-0010
1 44058U 19010B   25312.65929459  .00002999  00000-0  78062-2 0  9998
2 44058  87.8998 272.7023 0001995  86.4365 273.6994 13.16620304322598
Epoch: 2025-11-08T15:49Z
TLE epoch observation values (Epoch: 2025-11-08T15:49:23.052Z)
Latitude
-0.00003°
Longitude
-12.72948°
Altitude
1,200.456 km
Speed
7.254 km/s
True Right ascension
18h 10m 48s
True Declination
0° 00' 00"
Sunlit
Object was in daylight at epoch
Visualization orbit readout
Latitude
Unknown
Longitude
Unknown
Altitude
Unknown
Speed
Unknown
Apparent Right ascension
Unknown
Apparent Declination
Unknown
Sunlit
N/A
Visualization observer readout
Local Sidereal Time
07:31:42
Azimuth
Unknown
Elevation
Unknown
Doppler factor
Unknown
Orbital elements
Apogee altitude
1,196.278 km
Perigee altitude
1,193.256 km
Semi-major axis
7,572.904 km
Eccentricity
0.0002
Inclination
87.8998°
RAAN
272.7023°
Arg. of periapsis
86.4365°
True anomaly
273.67659°
Mean anomaly
273.6994°
Eccentric anomaly
273.68799°
Mean motion
3.29344 °/min
Orbital period
109.31 mins
BSTAR
0.0078062
Loading maneuver chart data...
Computing Atmospheric mass density...
Loading historical data...
Loading historical data...
Loading historical data...
Loading historical data...
Loading historical data...
Loading historical data...
Loading historical data...
Other satellites on launch #10 in the year 2019 (2019-02-27 UTC)

Documentation

Showing up to 5 results
|